owner,sensor,date,latitude,longitude,vertical_datum,sea_water_temperature,qcFlag 
LUMCON,ioos:station:LUMCON:wisl1:1,2019-12-01T00:00:00Z,29.1144,-90.1840,1.0,20.04,11111222 
LUMCON,ioos:station:LUMCON:wisl1:1,2019-12-01T00:15:00Z,29.1144,-90.1840,1.0,19.94,11111222 
LUMCON,ioos:station:LUMCON:wisl1:1,2019-12-01T00:30:00Z,29.1144,-90.1840,1.0,19.87,11111222 
LUMCON,ioos:station:LUMCON:wisl1:1,2019-12-01T00:45:00Z,29.1144,-90.1840,1.0,19.86,11111222 
LUMCON,ioos:station:LUMCON:wisl1:1,2019-12-01T01:00:00Z,29.1144,-90.1840,1.0,19.87,11111222 
LUMCON,ioos:station:LUMCON:wisl1:1,2019-12-01T01:15:00Z,29.1144,-90.1840,1.0,19.88,11111222 
LUMCON,ioos:station:LUMCON:wisl1:1,2019-12-01T01:30:00Z,29.1144,-90.1840,1.0,19.91,11111222 
LUMCON,ioos:station:LUMCON:wisl1:1,2019-12-01T01:45:00Z,29.1144,-90.1840,1.0,19.92,11111222 
LUMCON,ioos:station:LUMCON:wisl1:1,2019-12-01T02:00:00Z,29.1144,-90.1840,1.0,19.94,11111222 
LUMCON,ioos:station:LUMCON:wisl1:1,2019-12-01T02:15:00Z,29.1144,-90.1840,1.0,19.96,11111222 
LUMCON,ioos:station:LUMCON:wisl1:1,2019-12-01T02:30:00Z,29.1144,-90.1840,1.0,19.98,11111222 
LUMCON,ioos:station:LUMCON:wisl1:1,2019-12-01T02:45:00Z,29.1144,-90.1840,1.0,20.0,11111222 
LUMCON,ioos:station:LUMCON:wisl1:1,2019-12-01T03:00:00Z,29.1144,-90.1840,1.0,19.99,11111222 
LUMCON,ioos:station:LUMCON:wisl1:1,2019-12-01T03:15:00Z,29.1144,-90.1840,1.0,19.99,11111222 
LUMCON,ioos:station:LUMCON:wisl1:1,2019-12-01T03:30:00Z,29.1144,-90.1840,1.0,20.01,11111222 
LUMCON,ioos:station:LUMCON:wisl1:1,2019-12-01T03:45:00Z,29.1144,-90.1840,1.0,19.98,11111222 
LUMCON,ioos:station:LUMCON:wisl1:1,2019-12-01T04:00:00Z,29.1144,-90.1840,1.0,19.99,11111222 
LUMCON,ioos:station:LUMCON:wisl1:1,2019-12-01T04:15:00Z,29.1144,-90.1840,1.0,19.97,11111222 
LUMCON,ioos:station:LUMCON:wisl1:1,2019-12-01T04:30:00Z,29.1144,-90.1840,1.0,19.96,11111222 
LUMCON,ioos:station:LUMCON:wisl1:1,2019-12-01T04:45:00Z,29.1144,-90.1840,1.0,20.03,11111222 
LUMCON,ioos:station:LUMCON:wisl1:1,2019-12-01T05:00:00Z,29.1144,-90.1840,1.0,20.11,11111222 
LUMCON,ioos:station:LUMCON:wisl1:1,2019-12-01T05:15:00Z,29.1144,-90.1840,1.0,20.03,11111222 
LUMCON,ioos:station:LUMCON:wisl1:1,2019-12-01T05:30:00Z,29.1144,-90.1840,1.0,20.03,11111222 
LUMCON,ioos:station:LUMCON:wisl1:1,2019-12-01T05:45:00Z,29.1144,-90.1840,1.0,20.1,11111222 
LUMCON,ioos:station:LUMCON:wisl1:1,2019-12-01T06:00:00Z,29.1144,-90.1840,1.0,20.07,11111222 
LUMCON,ioos:station:LUMCON:wisl1:1,2019-12-01T06:15:00Z,29.1144,-90.1840,1.0,20.09,11111222 
LUMCON,ioos:station:LUMCON:wisl1:1,2019-12-01T06:30:00Z,29.1144,-90.1840,1.0,20.07,11111222 
LUMCON,ioos:station:LUMCON:wisl1:1,2019-12-01T06:45:00Z,29.1144,-90.1840,1.0,20.09,11111222 
LUMCON,ioos:station:LUMCON:wisl1:1,2019-12-01T07:00:00Z,29.1144,-90.1840,1.0,20.08,11111222 
LUMCON,ioos:station:LUMCON:wisl1:1,2019-12-01T07:15:00Z,29.1144,-90.1840,1.0,20.21,11111222 
LUMCON,ioos:station:LUMCON:wisl1:1,2019-12-01T07:30:00Z,29.1144,-90.1840,1.0,20.22,11111222 
LUMCON,ioos:station:LUMCON:wisl1:1,2019-12-01T07:45:00Z,29.1144,-90.1840,1.0,20.15,11111222 
LUMCON,ioos:station:LUMCON:wisl1:1,2019-12-01T08:00:00Z,29.1144,-90.1840,1.0,20.13,11111222 
LUMCON,ioos:station:LUMCON:wisl1:1,2019-12-01T08:15:00Z,29.1144,-90.1840,1.0,20.12,11111222 
LUMCON,ioos:station:LUMCON:wisl1:1,2019-12-01T08:30:00Z,29.1144,-90.1840,1.0,20.18,11111222 
LUMCON,ioos:station:LUMCON:wisl1:1,2019-12-01T08:45:00Z,29.1144,-90.1840,1.0,20.14,11111222 
LUMCON,ioos:station:LUMCON:wisl1:1,2019-12-01T09:00:00Z,29.1144,-90.1840,1.0,20.14,11111222 
LUMCON,ioos:station:LUMCON:wisl1:1,2019-12-01T09:15:00Z,29.1144,-90.1840,1.0,20.09,11111222 
LUMCON,ioos:station:LUMCON:wisl1:1,2019-12-01T09:30:00Z,29.1144,-90.1840,1.0,20.11,11111222 
LUMCON,ioos:station:LUMCON:wisl1:1,2019-12-01T09:45:00Z,29.1144,-90.1840,1.0,20.13,11111222 
LUMCON,ioos:station:LUMCON:wisl1:1,2019-12-01T10:00:00Z,29.1144,-90.1840,1.0,20.14,11111222 
LUMCON,ioos:station:LUMCON:wisl1:1,2019-12-01T10:15:00Z,29.1144,-90.1840,1.0,20.16,11111222 
LUMCON,ioos:station:LUMCON:wisl1:1,2019-12-01T10:30:00Z,29.1144,-90.1840,1.0,20.17,11111222 
LUMCON,ioos:station:LUMCON:wisl1:1,2019-12-01T10:45:00Z,29.1144,-90.1840,1.0,20.19,11111222 
LUMCON,ioos:station:LUMCON:wisl1:1,2019-12-01T11:00:00Z,29.1144,-90.1840,1.0,20.21,11111222 
LUMCON,ioos:station:LUMCON:wisl1:1,2019-12-01T11:15:00Z,29.1144,-90.1840,1.0,20.24,11111222 
LUMCON,ioos:station:LUMCON:wisl1:1,2019-12-01T11:30:00Z,29.1144,-90.1840,1.0,20.3,11111222 
LUMCON,ioos:station:LUMCON:wisl1:1,2019-12-01T11:45:00Z,29.1144,-90.1840,1.0,20.36,11111222 
LUMCON,ioos:station:LUMCON:wisl1:1,2019-12-01T12:00:00Z,29.1144,-90.1840,1.0,20.36,11111222 
LUMCON,ioos:station:LUMCON:wisl1:1,2019-12-01T12:15:00Z,29.1144,-90.1840,1.0,20.35,11111222 
LUMCON,ioos:station:LUMCON:wisl1:1,2019-12-01T12:30:00Z,29.1144,-90.1840,1.0,20.37,11111222 
LUMCON,ioos:station:LUMCON:wisl1:1,2019-12-01T12:45:00Z,29.1144,-90.1840,1.0,20.37,11111222 
LUMCON,ioos:station:LUMCON:wisl1:1,2019-12-01T13:00:00Z,29.1144,-90.1840,1.0,20.36,11111222 
LUMCON,ioos:station:LUMCON:wisl1:1,2019-12-01T13:15:00Z,29.1144,-90.1840,1.0,20.29,11111222 
LUMCON,ioos:station:LUMCON:wisl1:1,2019-12-01T13:30:00Z,29.1144,-90.1840,1.0,20.35,11111222 
LUMCON,ioos:station:LUMCON:wisl1:1,2019-12-01T13:45:00Z,29.1144,-90.1840,1.0,20.29,11111222 
LUMCON,ioos:station:LUMCON:wisl1:1,2019-12-01T14:00:00Z,29.1144,-90.1840,1.0,20.35,11111222 
LUMCON,ioos:station:LUMCON:wisl1:1,2019-12-01T14:15:00Z,29.1144,-90.1840,1.0,20.4,11111222 
LUMCON,ioos:station:LUMCON:wisl1:1,2019-12-01T14:30:00Z,29.1144,-90.1840,1.0,20.36,11111222 
LUMCON,ioos:station:LUMCON:wisl1:1,2019-12-01T14:45:00Z,29.1144,-90.1840,1.0,20.4,11111222 
LUMCON,ioos:station:LUMCON:wisl1:1,2019-12-01T15:00:00Z,29.1144,-90.1840,1.0,20.45,11111222 
LUMCON,ioos:station:LUMCON:wisl1:1,2019-12-01T15:15:00Z,29.1144,-90.1840,1.0,20.47,11111222 
LUMCON,ioos:station:LUMCON:wisl1:1,2019-12-01T15:30:00Z,29.1144,-90.1840,1.0,20.48,11111222 
LUMCON,ioos:station:LUMCON:wisl1:1,2019-12-01T15:45:00Z,29.1144,-90.1840,1.0,20.5,11111222 
LUMCON,ioos:station:LUMCON:wisl1:1,2019-12-01T16:00:00Z,29.1144,-90.1840,1.0,20.54,11111222 
LUMCON,ioos:station:LUMCON:wisl1:1,2019-12-01T16:15:00Z,29.1144,-90.1840,1.0,20.56,11111222 
LUMCON,ioos:station:LUMCON:wisl1:1,2019-12-01T16:30:00Z,29.1144,-90.1840,1.0,20.6,11111222 
LUMCON,ioos:station:LUMCON:wisl1:1,2019-12-01T16:45:00Z,29.1144,-90.1840,1.0,20.58,11111222 
LUMCON,ioos:station:LUMCON:wisl1:1,2019-12-01T17:00:00Z,29.1144,-90.1840,1.0,20.58,11111222 
LUMCON,ioos:station:LUMCON:wisl1:1,2019-12-01T17:15:00Z,29.1144,-90.1840,1.0,20.66,11111222 
LUMCON,ioos:station:LUMCON:wisl1:1,2019-12-01T17:30:00Z,29.1144,-90.1840,1.0,20.66,11111222 
LUMCON,ioos:station:LUMCON:wisl1:1,2019-12-01T17:45:00Z,29.1144,-90.1840,1.0,20.68,11111222 
LUMCON,ioos:station:LUMCON:wisl1:1,2019-12-01T18:00:00Z,29.1144,-90.1840,1.0,20.7,11111222 
LUMCON,ioos:station:LUMCON:wisl1:1,2019-12-01T18:15:00Z,29.1144,-90.1840,1.0,20.74,11111222 
LUMCON,ioos:station:LUMCON:wisl1:1,2019-12-01T18:30:00Z,29.1144,-90.1840,1.0,20.76,11111222 
LUMCON,ioos:station:LUMCON:wisl1:1,2019-12-01T18:45:00Z,29.1144,-90.1840,1.0,20.9,11111222 
LUMCON,ioos:station:LUMCON:wisl1:1,2019-12-01T19:00:00Z,29.1144,-90.1840,1.0,20.93,11111222 
LUMCON,ioos:station:LUMCON:wisl1:1,2019-12-01T19:15:00Z,29.1144,-90.1840,1.0,20.92,11111222 
LUMCON,ioos:station:LUMCON:wisl1:1,2019-12-01T19:30:00Z,29.1144,-90.1840,1.0,20.97,11111222 
LUMCON,ioos:station:LUMCON:wisl1:1,2019-12-01T19:45:00Z,29.1144,-90.1840,1.0,20.98,11111222 
LUMCON,ioos:station:LUMCON:wisl1:1,2019-12-01T20:00:00Z,29.1144,-90.1840,1.0,20.94,11111222 
LUMCON,ioos:station:LUMCON:wisl1:1,2019-12-01T20:15:00Z,29.1144,-90.1840,1.0,20.92,11111222 
LUMCON,ioos:station:LUMCON:wisl1:1,2019-12-01T20:30:00Z,29.1144,-90.1840,1.0,21.08,11111222 
LUMCON,ioos:station:LUMCON:wisl1:1,2019-12-01T20:45:00Z,29.1144,-90.1840,1.0,21.02,11111222 
LUMCON,ioos:station:LUMCON:wisl1:1,2019-12-01T21:00:00Z,29.1144,-90.1840,1.0,21.03,11111222 
LUMCON,ioos:station:LUMCON:wisl1:1,2019-12-01T21:15:00Z,29.1144,-90.1840,1.0,20.95,11111222 
LUMCON,ioos:station:LUMCON:wisl1:1,2019-12-01T21:30:00Z,29.1144,-90.1840,1.0,20.93,11111222 
LUMCON,ioos:station:LUMCON:wisl1:1,2019-12-01T21:45:00Z,29.1144,-90.1840,1.0,20.9,11111222 
LUMCON,ioos:station:LUMCON:wisl1:1,2019-12-01T22:00:00Z,29.1144,-90.1840,1.0,20.82,11111222 
LUMCON,ioos:station:LUMCON:wisl1:1,2019-12-01T22:15:00Z,29.1144,-90.1840,1.0,20.8,11111222 
LUMCON,ioos:station:LUMCON:wisl1:1,2019-12-01T22:30:00Z,29.1144,-90.1840,1.0,20.76,11111222 
LUMCON,ioos:station:LUMCON:wisl1:1,2019-12-01T22:45:00Z,29.1144,-90.1840,1.0,20.71,11111222 
LUMCON,ioos:station:LUMCON:wisl1:1,2019-12-01T23:00:00Z,29.1144,-90.1840,1.0,20.67,11111222 
LUMCON,ioos:station:LUMCON:wisl1:1,2019-12-01T23:15:00Z,29.1144,-90.1840,1.0,20.62,11111222 
LUMCON,ioos:station:LUMCON:wisl1:1,2019-12-01T23:30:00Z,29.1144,-90.1840,1.0,20.54,11111222 
LUMCON,ioos:station:LUMCON:wisl1:1,2019-12-01T23:45:00Z,29.1144,-90.1840,1.0,20.51,11111222 
LUMCON,ioos:station:LUMCON:wisl1:1,2019-12-02T00:00:00Z,29.1144,-90.1840,1.0,20.48,11111222 
LUMCON,ioos:station:LUMCON:wisl1:1,2019-12-02T00:15:00Z,29.1144,-90.1840,1.0,20.38,11111222 
LUMCON,ioos:station:LUMCON:wisl1:1,2019-12-02T00:30:00Z,29.1144,-90.1840,1.0,20.43,11111222 
LUMCON,ioos:station:LUMCON:wisl1:1,2019-12-02T00:45:00Z,29.1144,-90.1840,1.0,20.4,11111222 
LUMCON,ioos:station:LUMCON:wisl1:1,2019-12-02T01:00:00Z,29.1144,-90.1840,1.0,20.48,11111222 
LUMCON,ioos:station:LUMCON:wisl1:1,2019-12-02T01:15:00Z,29.1144,-90.1840,1.0,20.45,11111222 
LUMCON,ioos:station:LUMCON:wisl1:1,2019-12-02T01:30:00Z,29.1144,-90.1840,1.0,20.33,11111222 
LUMCON,ioos:station:LUMCON:wisl1:1,2019-12-02T01:45:00Z,29.1144,-90.1840,1.0,20.41,11111222 
LUMCON,ioos:station:LUMCON:wisl1:1,2019-12-02T02:00:00Z,29.1144,-90.1840,1.0,20.43,11111222 
LUMCON,ioos:station:LUMCON:wisl1:1,2019-12-02T02:15:00Z,29.1144,-90.1840,1.0,20.38,11111222 
LUMCON,ioos:station:LUMCON:wisl1:1,2019-12-02T02:30:00Z,29.1144,-90.1840,1.0,20.23,11111222 
LUMCON,ioos:station:LUMCON:wisl1:1,2019-12-02T02:45:00Z,29.1144,-90.1840,1.0,20.32,11111222 
LUMCON,ioos:station:LUMCON:wisl1:1,2019-12-02T03:00:00Z,29.1144,-90.1840,1.0,20.02,11111222 
LUMCON,ioos:station:LUMCON:wisl1:1,2019-12-02T03:15:00Z,29.1144,-90.1840,1.0,20.23,11111222 
LUMCON,ioos:station:LUMCON:wisl1:1,2019-12-02T03:30:00Z,29.1144,-90.1840,1.0,20.22,11111222 
LUMCON,ioos:station:LUMCON:wisl1:1,2019-12-02T03:45:00Z,29.1144,-90.1840,1.0,20.18,11111222 
LUMCON,ioos:station:LUMCON:wisl1:1,2019-12-02T04:00:00Z,29.1144,-90.1840,1.0,20.16,11111222 
LUMCON,ioos:station:LUMCON:wisl1:1,2019-12-02T04:15:00Z,29.1144,-90.1840,1.0,20.17,11111222 
LUMCON,ioos:station:LUMCON:wisl1:1,2019-12-02T04:30:00Z,29.1144,-90.1840,1.0,20.08,11111222 
LUMCON,ioos:station:LUMCON:wisl1:1,2019-12-02T04:45:00Z,29.1144,-90.1840,1.0,20.08,11111222 
LUMCON,ioos:station:LUMCON:wisl1:1,2019-12-02T05:00:00Z,29.1144,-90.1840,1.0,20.13,11111222 
LUMCON,ioos:station:LUMCON:wisl1:1,2019-12-02T05:15:00Z,29.1144,-90.1840,1.0,20.11,11111222 
LUMCON,ioos:station:LUMCON:wisl1:1,2019-12-02T05:30:00Z,29.1144,-90.1840,1.0,20.08,11111222 
LUMCON,ioos:station:LUMCON:wisl1:1,2019-12-02T05:45:00Z,29.1144,-90.1840,1.0,20.05,11111222 
LUMCON,ioos:station:LUMCON:wisl1:1,2019-12-02T06:00:00Z,29.1144,-90.1840,1.0,19.93,11111222 
LUMCON,ioos:station:LUMCON:wisl1:1,2019-12-02T06:15:00Z,29.1144,-90.1840,1.0,19.95,11111222 
LUMCON,ioos:station:LUMCON:wisl1:1,2019-12-02T06:30:00Z,29.1144,-90.1840,1.0,19.93,11111222 
LUMCON,ioos:station:LUMCON:wisl1:1,2019-12-02T06:45:00Z,29.1144,-90.1840,1.0,19.71,11111222 
LUMCON,ioos:station:LUMCON:wisl1:1,2019-12-02T07:00:00Z,29.1144,-90.1840,1.0,19.55,11111222 
LUMCON,ioos:station:LUMCON:wisl1:1,2019-12-02T07:15:00Z,29.1144,-90.1840,1.0,19.41,11111222 
LUMCON,ioos:station:LUMCON:wisl1:1,2019-12-02T07:30:00Z,29.1144,-90.1840,1.0,19.46,11111222 
LUMCON,ioos:station:LUMCON:wisl1:1,2019-12-02T07:45:00Z,29.1144,-90.1840,1.0,18.92,11111222 
LUMCON,ioos:station:LUMCON:wisl1:1,2019-12-02T08:00:00Z,29.1144,-90.1840,1.0,18.67,11111222 
LUMCON,ioos:station:LUMCON:wisl1:1,2019-12-02T08:15:00Z,29.1144,-90.1840,1.0,18.46,11111222 
LUMCON,ioos:station:LUMCON:wisl1:1,2019-12-02T08:30:00Z,29.1144,-90.1840,1.0,18.0,11111222 
LUMCON,ioos:station:LUMCON:wisl1:1,2019-12-02T08:45:00Z,29.1144,-90.1840,1.0,17.68,11111222 
LUMCON,ioos:station:LUMCON:wisl1:1,2019-12-02T09:00:00Z,29.1144,-90.1840,1.0,17.73,11111222 
LUMCON,ioos:station:LUMCON:wisl1:1,2019-12-02T09:15:00Z,29.1144,-90.1840,1.0,17.81,11111222 
LUMCON,ioos:station:LUMCON:wisl1:1,2019-12-02T09:30:00Z,29.1144,-90.1840,1.0,17.72,11111222 
LUMCON,ioos:station:LUMCON:wisl1:1,2019-12-02T09:45:00Z,29.1144,-90.1840,1.0,17.6,11111222 
LUMCON,ioos:station:LUMCON:wisl1:1,2019-12-02T10:00:00Z,29.1144,-90.1840,1.0,17.14,11111222 
LUMCON,ioos:station:LUMCON:wisl1:1,2019-12-02T10:15:00Z,29.1144,-90.1840,1.0,16.72,11111222 
LUMCON,ioos:station:LUMCON:wisl1:1,2019-12-02T10:30:00Z,29.1144,-90.1840,1.0,16.39,11111222 
LUMCON,ioos:station:LUMCON:wisl1:1,2019-12-02T10:45:00Z,29.1144,-90.1840,1.0,16.27,11111222 
LUMCON,ioos:station:LUMCON:wisl1:1,2019-12-02T11:00:00Z,29.1144,-90.1840,1.0,16.1,11111222 
LUMCON,ioos:station:LUMCON:wisl1:1,2019-12-02T11:15:00Z,29.1144,-90.1840,1.0,15.9,11111222 
LUMCON,ioos:station:LUMCON:wisl1:1,2019-12-02T11:30:00Z,29.1144,-90.1840,1.0,15.76,11111222 
LUMCON,ioos:station:LUMCON:wisl1:1,2019-12-02T11:45:00Z,29.1144,-90.1840,1.0,15.78,11111222 
LUMCON,ioos:station:LUMCON:wisl1:1,2019-12-02T12:00:00Z,29.1144,-90.1840,1.0,15.44,11111222 
LUMCON,ioos:station:LUMCON:wisl1:1,2019-12-02T12:15:00Z,29.1144,-90.1840,1.0,15.23,11111222 
LUMCON,ioos:station:LUMCON:wisl1:1,2019-12-02T12:30:00Z,29.1144,-90.1840,1.0,15.04,11111222 
LUMCON,ioos:station:LUMCON:wisl1:1,2019-12-02T12:45:00Z,29.1144,-90.1840,1.0,14.87,11111222 
LUMCON,ioos:station:LUMCON:wisl1:1,2019-12-02T13:00:00Z,29.1144,-90.1840,1.0,14.73,11111222 
LUMCON,ioos:station:LUMCON:wisl1:1,2019-12-02T13:15:00Z,29.1144,-90.1840,1.0,14.55,11111222 
LUMCON,ioos:station:LUMCON:wisl1:1,2019-12-02T13:30:00Z,29.1144,-90.1840,1.0,14.44,11111222 
LUMCON,ioos:station:LUMCON:wisl1:1,2019-12-02T13:45:00Z,29.1144,-90.1840,1.0,14.32,11111222 
LUMCON,ioos:station:LUMCON:wisl1:1,2019-12-02T14:00:00Z,29.1144,-90.1840,1.0,14.18,11111222 
LUMCON,ioos:station:LUMCON:wisl1:1,2019-12-02T14:15:00Z,29.1144,-90.1840,1.0,14.08,11111222 
LUMCON,ioos:station:LUMCON:wisl1:1,2019-12-02T14:30:00Z,29.1144,-90.1840,1.0,14.06,11111222 
LUMCON,ioos:station:LUMCON:wisl1:1,2019-12-02T14:45:00Z,29.1144,-90.1840,1.0,14.06,11111222 
LUMCON,ioos:station:LUMCON:wisl1:1,2019-12-02T15:00:00Z,29.1144,-90.1840,1.0,14.1,11111222 
LUMCON,ioos:station:LUMCON:wisl1:1,2019-12-02T15:15:00Z,29.1144,-90.1840,1.0,13.98,11111222 
LUMCON,ioos:station:LUMCON:wisl1:1,2019-12-02T15:30:00Z,29.1144,-90.1840,1.0,14.09,11111222 
LUMCON,ioos:station:LUMCON:wisl1:1,2019-12-02T15:45:00Z,29.1144,-90.1840,1.0,14.06,11111222 
LUMCON,ioos:station:LUMCON:wisl1:1,2019-12-02T16:00:00Z,29.1144,-90.1840,1.0,13.91,11111222 
LUMCON,ioos:station:LUMCON:wisl1:1,2019-12-02T16:15:00Z,29.1144,-90.1840,1.0,13.87,11111222 
LUMCON,ioos:station:LUMCON:wisl1:1,2019-12-02T16:30:00Z,29.1144,-90.1840,1.0,14.09,11111222 
LUMCON,ioos:station:LUMCON:wisl1:1,2019-12-02T16:45:00Z,29.1144,-90.1840,1.0,14.1,11111222 
LUMCON,ioos:station:LUMCON:wisl1:1,2019-12-02T17:00:00Z,29.1144,-90.1840,1.0,14.16,11111222 
LUMCON,ioos:station:LUMCON:wisl1:1,2019-12-02T17:15:00Z,29.1144,-90.1840,1.0,14.34,11111222 
LUMCON,ioos:station:LUMCON:wisl1:1,2019-12-02T17:30:00Z,29.1144,-90.1840,1.0,14.01,11111222 
LUMCON,ioos:station:LUMCON:wisl1:1,2019-12-02T17:45:00Z,29.1144,-90.1840,1.0,14.16,11111222 
LUMCON,ioos:station:LUMCON:wisl1:1,2019-12-02T18:00:00Z,29.1144,-90.1840,1.0,14.14,11111222 
LUMCON,ioos:station:LUMCON:wisl1:1,2019-12-02T18:15:00Z,29.1144,-90.1840,1.0,14.21,11111222 
LUMCON,ioos:station:LUMCON:wisl1:1,2019-12-02T18:30:00Z,29.1144,-90.1840,1.0,14.14,11111222 
LUMCON,ioos:station:LUMCON:wisl1:1,2019-12-02T18:45:00Z,29.1144,-90.1840,1.0,14.09,11111222 
LUMCON,ioos:station:LUMCON:wisl1:1,2019-12-02T19:00:00Z,29.1144,-90.1840,1.0,14.13,11111222 
LUMCON,ioos:station:LUMCON:wisl1:1,2019-12-02T19:15:00Z,29.1144,-90.1840,1.0,14.14,11111222 
LUMCON,ioos:station:LUMCON:wisl1:1,2019-12-02T19:30:00Z,29.1144,-90.1840,1.0,14.06,11111222 
LUMCON,ioos:station:LUMCON:wisl1:1,2019-12-02T19:45:00Z,29.1144,-90.1840,1.0,14.13,11111222 
LUMCON,ioos:station:LUMCON:wisl1:1,2019-12-02T20:00:00Z,29.1144,-90.1840,1.0,14.2,11111222 
LUMCON,ioos:station:LUMCON:wisl1:1,2019-12-02T20:15:00Z,29.1144,-90.1840,1.0,14.31,11111222 
LUMCON,ioos:station:LUMCON:wisl1:1,2019-12-02T20:30:00Z,29.1144,-90.1840,1.0,14.35,11111222 
LUMCON,ioos:station:LUMCON:wisl1:1,2019-12-02T20:45:00Z,29.1144,-90.1840,1.0,14.32,11111222 
LUMCON,ioos:station:LUMCON:wisl1:1,2019-12-02T21:00:00Z,29.1144,-90.1840,1.0,14.23,11111222 
LUMCON,ioos:station:LUMCON:wisl1:1,2019-12-02T21:15:00Z,29.1144,-90.1840,1.0,14.24,11111222 
LUMCON,ioos:station:LUMCON:wisl1:1,2019-12-02T21:30:00Z,29.1144,-90.1840,1.0,14.26,11111222 
LUMCON,ioos:station:LUMCON:wisl1:1,2019-12-02T21:45:00Z,29.1144,-90.1840,1.0,14.32,11111222 
LUMCON,ioos:station:LUMCON:wisl1:1,2019-12-02T22:00:00Z,29.1144,-90.1840,1.0,14.33,11111222 
LUMCON,ioos:station:LUMCON:wisl1:1,2019-12-02T22:15:00Z,29.1144,-90.1840,1.0,14.46,11111222 
LUMCON,ioos:station:LUMCON:wisl1:1,2019-12-02T22:30:00Z,29.1144,-90.1840,1.0,14.46,11111222 
LUMCON,ioos:station:LUMCON:wisl1:1,2019-12-02T22:45:00Z,29.1144,-90.1840,1.0,14.58,11111222 
LUMCON,ioos:station:LUMCON:wisl1:1,2019-12-02T23:00:00Z,29.1144,-90.1840,1.0,14.73,11111222 
LUMCON,ioos:station:LUMCON:wisl1:1,2019-12-02T23:15:00Z,29.1144,-90.1840,1.0,15.51,11111222 
LUMCON,ioos:station:LUMCON:wisl1:1,2019-12-02T23:30:00Z,29.1144,-90.1840,1.0,16.05,11111222 
LUMCON,ioos:station:LUMCON:wisl1:1,2019-12-02T23:45:00Z,29.1144,-90.1840,1.0,16.69,11111222 
LUMCON,ioos:station:LUMCON:wisl1:1,2019-12-03T00:00:00Z,29.1144,-90.1840,1.0,17.57,11111222 
LUMCON,ioos:station:LUMCON:wisl1:1,2019-12-03T00:15:00Z,29.1144,-90.1840,1.0,17.62,11111222 
LUMCON,ioos:station:LUMCON:wisl1:1,2019-12-03T00:30:00Z,29.1144,-90.1840,1.0,17.8,11111222 
LUMCON,ioos:station:LUMCON:wisl1:1,2019-12-03T00:45:00Z,29.1144,-90.1840,1.0,17.94,11111222 
LUMCON,ioos:station:LUMCON:wisl1:1,2019-12-03T01:00:00Z,29.1144,-90.1840,1.0,18.3,11111222 
LUMCON,ioos:station:LUMCON:wisl1:1,2019-12-03T01:15:00Z,29.1144,-90.1840,1.0,18.39,11111222 
LUMCON,ioos:station:LUMCON:wisl1:1,2019-12-03T01:30:00Z,29.1144,-90.1840,1.0,18.59,11111222 
LUMCON,ioos:station:LUMCON:wisl1:1,2019-12-03T01:45:00Z,29.1144,-90.1840,1.0,18.6,11111222 
LUMCON,ioos:station:LUMCON:wisl1:1,2019-12-03T02:00:00Z,29.1144,-90.1840,1.0,18.78,11111222 
LUMCON,ioos:station:LUMCON:wisl1:1,2019-12-03T02:15:00Z,29.1144,-90.1840,1.0,18.87,11111222 
LUMCON,ioos:station:LUMCON:wisl1:1,2019-12-03T02:30:00Z,29.1144,-90.1840,1.0,18.93,11111222 
LUMCON,ioos:station:LUMCON:wisl1:1,2019-12-03T02:45:00Z,29.1144,-90.1840,1.0,18.98,11111222 
LUMCON,ioos:station:LUMCON:wisl1:1,2019-12-03T03:00:00Z,29.1144,-90.1840,1.0,19.21,11111222 
LUMCON,ioos:station:LUMCON:wisl1:1,2019-12-03T03:15:00Z,29.1144,-90.1840,1.0,19.12,11111222 
LUMCON,ioos:station:LUMCON:wisl1:1,2019-12-03T03:30:00Z,29.1144,-90.1840,1.0,19.32,11111222 
LUMCON,ioos:station:LUMCON:wisl1:1,2019-12-03T03:45:00Z,29.1144,-90.1840,1.0,19.32,11111222 
LUMCON,ioos:station:LUMCON:wisl1:1,2019-12-03T04:00:00Z,29.1144,-90.1840,1.0,19.33,11111222 
LUMCON,ioos:station:LUMCON:wisl1:1,2019-12-03T04:15:00Z,29.1144,-90.1840,1.0,19.31,11111222 
LUMCON,ioos:station:LUMCON:wisl1:1,2019-12-03T04:30:00Z,29.1144,-90.1840,1.0,19.32,11111222 
LUMCON,ioos:station:LUMCON:wisl1:1,2019-12-03T04:45:00Z,29.1144,-90.1840,1.0,19.37,11111222 
LUMCON,ioos:station:LUMCON:wisl1:1,2019-12-03T05:00:00Z,29.1144,-90.1840,1.0,19.32,11111222 
LUMCON,ioos:station:LUMCON:wisl1:1,2019-12-03T05:15:00Z,29.1144,-90.1840,1.0,19.39,11111222 
LUMCON,ioos:station:LUMCON:wisl1:1,2019-12-03T05:30:00Z,29.1144,-90.1840,1.0,19.4,11111222 
LUMCON,ioos:station:LUMCON:wisl1:1,2019-12-03T05:45:00Z,29.1144,-90.1840,1.0,19.38,11111222 
LUMCON,ioos:station:LUMCON:wisl1:1,2019-12-03T06:00:00Z,29.1144,-90.1840,1.0,19.27,11111222 
LUMCON,ioos:station:LUMCON:wisl1:1,2019-12-03T06:15:00Z,29.1144,-90.1840,1.0,19.44,11111222 
LUMCON,ioos:station:LUMCON:wisl1:1,2019-12-03T06:30:00Z,29.1144,-90.1840,1.0,19.08,11111222 
LUMCON,ioos:station:LUMCON:wisl1:1,2019-12-03T06:45:00Z,29.1144,-90.1840,1.0,19.02,11111222 
LUMCON,ioos:station:LUMCON:wisl1:1,2019-12-03T07:00:00Z,29.1144,-90.1840,1.0,19.02,11111222 
LUMCON,ioos:station:LUMCON:wisl1:1,2019-12-03T07:15:00Z,29.1144,-90.1840,1.0,18.95,11111222 
LUMCON,ioos:station:LUMCON:wisl1:1,2019-12-03T07:30:00Z,29.1144,-90.1840,1.0,18.93,11111222 
LUMCON,ioos:station:LUMCON:wisl1:1,2019-12-03T07:45:00Z,29.1144,-90.1840,1.0,18.98,11111222 
LUMCON,ioos:station:LUMCON:wisl1:1,2019-12-03T08:00:00Z,29.1144,-90.1840,1.0,19.32,11111222 
LUMCON,ioos:station:LUMCON:wisl1:1,2019-12-03T08:15:00Z,29.1144,-90.1840,1.0,19.32,11111222 
LUMCON,ioos:station:LUMCON:wisl1:1,2019-12-03T08:30:00Z,29.1144,-90.1840,1.0,19.23,11111222 
LUMCON,ioos:station:LUMCON:wisl1:1,2019-12-03T08:45:00Z,29.1144,-90.1840,1.0,19.13,11111222 
LUMCON,ioos:station:LUMCON:wisl1:1,2019-12-03T09:00:00Z,29.1144,-90.1840,1.0,19.13,11111222 
LUMCON,ioos:station:LUMCON:wisl1:1,2019-12-03T09:15:00Z,29.1144,-90.1840,1.0,18.75,11111222 
LUMCON,ioos:station:LUMCON:wisl1:1,2019-12-03T09:30:00Z,29.1144,-90.1840,1.0,18.92,11111222 
LUMCON,ioos:station:LUMCON:wisl1:1,2019-12-03T09:45:00Z,29.1144,-90.1840,1.0,17.32,11111222 
LUMCON,ioos:station:LUMCON:wisl1:1,2019-12-03T10:00:00Z,29.1144,-90.1840,1.0,17.89,11111222 
LUMCON,ioos:station:LUMCON:wisl1:1,2019-12-03T10:15:00Z,29.1144,-90.1840,1.0,17.79,11111222 
LUMCON,ioos:station:LUMCON:wisl1:1,2019-12-03T10:30:00Z,29.1144,-90.1840,1.0,17.04,11111222 
LUMCON,ioos:station:LUMCON:wisl1:1,2019-12-03T10:45:00Z,29.1144,-90.1840,1.0,16.85,11111222 
LUMCON,ioos:station:LUMCON:wisl1:1,2019-12-03T11:00:00Z,29.1144,-90.1840,1.0,16.38,11111222 
LUMCON,ioos:station:LUMCON:wisl1:1,2019-12-03T11:15:00Z,29.1144,-90.1840,1.0,16.3,11111222 
LUMCON,ioos:station:LUMCON:wisl1:1,2019-12-03T11:30:00Z,29.1144,-90.1840,1.0,16.25,11111222 
LUMCON,ioos:station:LUMCON:wisl1:1,2019-12-03T11:45:00Z,29.1144,-90.1840,1.0,15.67,11111222 
LUMCON,ioos:station:LUMCON:wisl1:1,2019-12-03T12:00:00Z,29.1144,-90.1840,1.0,15.62,11111222 
LUMCON,ioos:station:LUMCON:wisl1:1,2019-12-03T12:15:00Z,29.1144,-90.1840,1.0,15.35,11111222 
LUMCON,ioos:station:LUMCON:wisl1:1,2019-12-03T12:30:00Z,29.1144,-90.1840,1.0,15.45,11111222 
LUMCON,ioos:station:LUMCON:wisl1:1,2019-12-03T12:45:00Z,29.1144,-90.1840,1.0,15.02,11111222 
LUMCON,ioos:station:LUMCON:wisl1:1,2019-12-03T13:00:00Z,29.1144,-90.1840,1.0,14.63,11111222 
LUMCON,ioos:station:LUMCON:wisl1:1,2019-12-03T13:15:00Z,29.1144,-90.1840,1.0,14.49,11111222 
LUMCON,ioos:station:LUMCON:wisl1:1,2019-12-03T13:30:00Z,29.1144,-90.1840,1.0,14.23,11111222 
LUMCON,ioos:station:LUMCON:wisl1:1,2019-12-03T13:45:00Z,29.1144,-90.1840,1.0,14.29,11111222 
LUMCON,ioos:station:LUMCON:wisl1:1,2019-12-03T14:00:00Z,29.1144,-90.1840,1.0,14.06,11111222 
LUMCON,ioos:station:LUMCON:wisl1:1,2019-12-03T14:15:00Z,29.1144,-90.1840,1.0,13.81,11111222 
LUMCON,ioos:station:LUMCON:wisl1:1,2019-12-03T14:30:00Z,29.1144,-90.1840,1.0,13.54,11111222 
LUMCON,ioos:station:LUMCON:wisl1:1,2019-12-03T14:45:00Z,29.1144,-90.1840,1.0,13.61,11111222 
LUMCON,ioos:station:LUMCON:wisl1:1,2019-12-03T15:00:00Z,29.1144,-90.1840,1.0,13.63,11111222 
LUMCON,ioos:station:LUMCON:wisl1:1,2019-12-03T15:15:00Z,29.1144,-90.1840,1.0,13.44,11111222 
LUMCON,ioos:station:LUMCON:wisl1:1,2019-12-03T15:30:00Z,29.1144,-90.1840,1.0,13.18,11111222 
LUMCON,ioos:station:LUMCON:wisl1:1,2019-12-03T15:45:00Z,29.1144,-90.1840,1.0,13.13,11111222 
LUMCON,ioos:station:LUMCON:wisl1:1,2019-12-03T16:00:00Z,29.1144,-90.1840,1.0,13.15,11111222 